FW4270 Weather Reports


Display with metric or nautical units.
time (UTC)temp
F
wind
direction
speed
MPH
gust
MPH
rain 1hr
in
rain 24hr
in
rain mn
in
humidity
%
barometer
mb
20260504173125 71 155 1.0 3.0 0.00 0.00 0.00 60 1010.9
20260504172853 71 162 0.0 0.0 0.00 0.00 0.00 60 1010.9
20260504172123 71 163 0.0 0.0 0.00 0.00 0.00 59 1010.9
20260504171844 71 163 0.0 0.0 0.00 0.00 0.00 59 1010.9
20260504171121 71 163 0.0 0.0 0.00 0.00 0.00 59 1010.9
20260504170621 71 162 0.0 0.0 0.00 0.00 0.00 59 1011.0
20260504170117 71 163 0.0 0.0 0.00 0.00 0.00 60 1011.1
20260504160109 72 163 0.0 0.0 0.00 0.00 0.00 57 1011.0
20260504151103 73 181 5.0 9.0 0.00 0.00 0.00 56 1010.4
20260504150605 73 144 5.0 10.0 0.00 0.00 0.00 56 1010.5
20260504150105 73 196 5.0 10.0 0.00 0.00 0.00 56 1010.5
20260504141104 76 162 4.0 9.0 0.00 0.00 0.00 51 1009.4
20260504140602 76 157 5.0 12.0 0.00 0.00 0.00 51 1009.3
20260504130545 77 89 7.0 14.0 0.00 0.00 0.00 51 1009.5
20260504110444 81 92 6.0 13.0 0.00 0.00 0.00 47 1009.1
20260504100329 80 94 6.0 15.0 0.00 0.00 0.00 55 1010.0
20260504081622 83 58 2.0 6.0 0.00 0.00 0.00 52 1009.0
20260504081121 83 44 2.0 5.0 0.00 0.00 0.00 53 1009.1
20260504080611 82 45 3.0 8.0 0.00 0.00 0.00 54 1009.3
20260504080350 82 333 3.0 8.0 0.00 0.00 0.00 54 1009.5
20260504060249 81 30 3.0 7.0 0.00 0.00 0.00 48 1010.7
20260504050522 82 236 4.0 8.0 0.00 0.00 0.00 51 1010.4
20260504050022 82 179 4.0 7.0 0.00 0.00 0.00 50 1010.2
20260504045523 82 198 4.0 7.0 0.00 0.00 0.00 49 1010.2
20260504045250 82 210 4.0 9.0 0.00 0.00 0.00 50 1010.1
20260504044524 82 194 5.0 10.0 0.00 0.00 0.00 51 1010.1
20260504044020 82 186 5.0 10.0 0.00 0.00 0.00 53 1010.1
20260504043520 82 228 6.0 11.0 0.00 0.00 0.00 53 1010.2
20260504043020 81 187 7.0 11.0 0.00 0.00 0.00 54 1010.2
20260504042517 81 188 7.0 15.0 0.00 0.00 0.00 56 1010.1
20260504042020 81 184 7.0 15.0 0.00 0.00 0.00 56 1010.0
20260504041520 81 180 7.0 13.0 0.00 0.00 0.00 57 1010.0
20260504041019 81 182 6.0 14.0 0.00 0.00 0.00 56 1009.9
20260504040520 81 181 6.0 14.0 0.00 0.00 0.00 57 1009.8
20260504040020 81 174 6.0 13.0 0.00 0.00 0.00 56 1009.7
20260504035516 80 190 5.0 10.0 0.00 0.00 0.00 58 1009.6
20260504035016 80 182 4.0 9.0 0.00 0.00 0.00 58 1009.6
20260504034516 80 161 4.0 8.0 0.00 0.00 0.00 58 1009.4
20260504034016 80 151 3.0 7.0 0.00 0.00 0.00 57 1009.3
20260504033518 80 116 4.0 9.0 0.00 0.00 0.00 56 1009.3
20260504033016 80 155 4.0 9.0 0.00 0.00 0.00 56 1009.2
20260504032516 80 121 3.0 8.0 0.00 0.00 0.00 57 1009.1
20260504032014 80 122 2.0 6.0 0.00 0.00 0.00 56 1009.0
20260504031514 80 248 1.0 4.0 0.00 0.00 0.00 57 1008.8
20260504031010 80 250 1.0 4.0 0.00 0.00 0.00 57 1008.8
20260504030509 80 250 1.0 3.0 0.00 0.00 0.00 57 1008.7
20260504030010 80 250 1.0 3.0 0.00 0.00 0.00 58 1008.5
20260504025509 80 251 1.0 3.0 0.00 0.00 0.00 58 1008.5
20260504025003 79 250 1.0 3.0 0.00 0.00 0.00 58 1008.6
20260504024502 79 251 1.0 3.0 0.00 0.00 0.00 60 1008.4
20260504024002 78 251 1.0 3.0 0.00 0.00 0.00 61 1008.2
20260504023504 78 252 1.0 3.0 0.00 0.00 0.00 61 1008.2
20260504022959 78 252 2.0 3.0 0.00 0.00 0.00 63 1008.1
20260504022500 77 252 2.0 4.0 0.00 0.00 0.00 63 1008.0
20260504022002 77 252 1.0 4.0 0.00 0.00 0.00 64 1007.9
20260504021500 77 322 1.0 2.0 0.00 0.00 0.00 64 1007.9
20260504020958 76 321 0.0 2.0 0.00 0.00 0.00 65 1007.9
20260504020458 76 321 0.0 0.0 0.00 0.00 0.00 68 1007.8
20260504015958 76 321 0.0 0.0 0.00 0.00 0.00 69 1007.8
20260504015459 75 321 0.0 0.0 0.00 0.00 0.00 69 1007.7
20260504014959 75 321 0.0 0.0 0.00 0.00 0.00 70 1007.6
20260504014456 74 321 0.0 0.0 0.00 0.00 0.00 71 1007.6
20260504013956 74 321 0.0 0.0 0.00 0.00 0.00 72 1007.5
20260504013501 73 321 0.0 0.0 0.00 0.00 0.00 72 1007.5
20260504012954 73 321 0.0 0.0 0.00 0.00 0.00 72 1007.4
20260504012447 73 321 0.0 0.0 0.00 0.00 0.00 72 1007.4
20260504011941 72 321 0.0 0.0 0.00 0.00 0.00 72 1007.8
20260504011434 72 321 0.0 2.0 0.00 0.00 0.00 72 1007.4
20260504010929 72 321 1.0 4.0 0.00 0.00 0.00 72 1007.3
20260504010423 72 321 2.0 4.0 0.00 0.00 0.00 73 1007.3
20260504005917 72 321 2.0 4.0 0.00 0.00 0.00 73 1007.3
20260504005630 72 322 2.0 3.0 0.00 0.00 0.00 73 1007.3
20260504004905 72 323 1.0 3.0 0.00 0.00 0.00 74 1007.1
20260504004359 72 344 0.0 0.0 0.00 0.00 0.00 74 1007.0
20260504003853 72 344 0.0 0.0 0.00 0.00 0.00 74 1006.9
20260504003348 72 344 0.0 0.0 0.00 0.00 0.00 73 1006.9
20260504002841 72 344 0.0 0.0 0.00 0.00 0.00 73 1006.9
20260504002335 72 344 0.0 0.0 0.00 0.00 0.00 73 1006.9
20260504001829 72 344 0.0 0.0 0.00 0.00 0.00 73 1006.8
20260504001324 72 344 0.0 1.0 0.00 0.00 0.00 72 1006.8
20260504000817 72 344 0.0 1.0 0.00 0.00 0.00 72 1006.8
20260504000312 72 344 0.0 1.0 0.00 0.00 0.00 72 1006.7
20260503235805 72 344 0.0 3.0 0.00 0.00 0.00 72 1006.7
20260503235527 72 344 0.0 3.0 0.00 0.00 0.00 72 1006.6
20260503235019 72 345 0.0 2.0 0.00 0.00 0.00 71 1006.7
20260503234247 72 0 0.0 0.0 0.00 0.00 0.00 71 1006.6
20260503233741 72 0 0.0 0.0 0.00 0.00 0.00 72 1006.7
20260503233503 72 0 0.0 0.0 0.00 0.00 0.00 72 1006.5
20260503232729 72 0 0.0 0.0 0.00 0.00 0.00 72 1006.6
20260503232223 72 14 0.0 0.0 0.00 0.00 0.00 72 1006.7
20260503231211 72 14 0.0 0.0 0.00 0.00 0.00 72 1006.6
20260503230705 72 14 0.0 0.0 0.00 0.00 0.00 72 1006.6
20260503230159 72 14 0.0 0.0 0.00 0.00 0.00 73 1006.6
20260503225653 73 14 0.0 0.0 0.00 0.00 0.00 73 1006.5
20260503225148 73 14 0.0 0.0 0.00 0.00 0.00 72 1006.4
20260503224641 73 14 0.0 0.0 0.00 0.00 0.00 72 1006.5
20260503224135 73 14 0.0 0.0 0.00 0.00 0.00 71 1006.5
20260503223854 73 14 0.0 0.0 0.00 0.00 0.00 71 1006.5
20260503223125 73 14 0.0 0.0 0.00 0.00 0.00 71 1006.5
20260503222849 73 14 0.0 0.0 0.00 0.00 0.00 70 1006.5
20260503222340 74 14 0.0 0.0 0.00 0.00 0.00 70 1006.4
20260503221120 74 14 0.0 0.0 0.00 0.00 0.00 67 1006.5
20260503220619 74 14 0.0 0.0 0.00 0.00 0.00 68 1006.5
20260503220117 74 14 0.0 0.0 0.00 0.00 0.00 68 1006.6
20260503215614 74 14 0.0 0.0 0.00 0.00 0.00 67 1006.8
20260503215115 74 14 0.0 0.0 0.00 0.00 0.00 67 1006.8
20260503214615 74 14 0.0 0.0 0.00 0.00 0.00 66 1006.9
20260503214113 74 14 0.0 0.0 0.00 0.00 0.00 66 1006.8
20260503213827 74 14 0.0 0.0 0.00 0.01 0.00 66 1006.9
20260503213113 74 14 0.0 0.0 0.00 0.02 0.00 66 1006.9
20260503212609 74 14 0.0 2.0 0.00 0.02 0.00 66 1006.8
20260503212109 74 14 0.0 2.0 0.00 0.03 0.00 66 1006.8
20260503211611 74 14 1.0 2.0 0.00 0.05 0.00 66 1006.9
20260503211110 74 14 1.0 3.0 0.00 0.07 0.00 66 1006.9
20260503210609 74 14 0.0 3.0 0.00 0.09 0.00 66 1006.8
20260503210110 74 14 0.0 0.0 0.00 0.11 0.00 67 1006.8
20260503205611 74 14 0.0 0.0 0.00 0.13 0.00 67 1006.8
20260503205111 74 14 0.0 1.0 0.00 0.15 0.00 66 1006.9
20260503204613 74 14 0.0 1.0 0.00 0.17 0.00 66 1006.9
20260503204111 74 14 0.0 1.0 0.00 0.19 0.00 67 1006.9
20260503203609 74 14 0.0 1.0 0.00 0.20 0.00 67 1006.8
20260503203333 74 14 0.0 1.0 0.00 0.20 0.00 66 1007.0
20260503202611 74 14 1.0 3.0 0.00 0.20 0.00 66 1007.0
20260503202108 74 14 1.0 3.0 0.00 0.21 0.00 66 1007.0
20260503201608 74 15 0.0 0.0 0.00 0.22 0.00 67 1007.2
20260503201109 75 15 0.0 0.0 0.00 0.22 0.00 67 1007.2
20260503200605 75 15 0.0 0.0 0.00 0.22 0.00 67 1007.2
20260503200105 75 15 0.0 0.0 0.00 0.22 0.00 67 1007.1
20260503195605 75 15 0.0 0.0 0.00 0.22 0.00 66 1007.1
20260503195329 75 15 0.0 2.0 0.00 0.22 0.00 66 1007.1
20260503194606 75 15 1.0 2.0 0.00 0.22 0.00 66 1007.2
20260503194106 75 15 1.0 2.0 0.00 0.22 0.00 66 1007.2
20260503193605 76 15 0.0 2.0 0.00 0.22 0.00 66 1007.2
20260503193103 76 15 0.0 0.0 0.00 0.22 0.00 65 1007.3
20260503192603 76 15 0.0 2.0 0.00 0.22 0.00 65 1007.3
20260503191609 76 15 1.0 3.0 0.00 0.22 0.00 65 1007.4
20260503191109 76 15 1.0 3.0 0.00 0.22 0.00 65 1007.5
20260503190606 76 15 1.0 3.0 0.00 0.22 0.00 64 1007.4
20260503190329 76 15 1.0 3.0 0.00 0.22 0.00 63 1007.5
20260503185603 77 15 2.0 4.0 0.00 0.22 0.22 62 1007.5
20260503185057 77 15 2.0 5.0 0.00 0.22 0.22 62 1007.6
20260503184551 77 25 2.0 5.0 0.00 0.22 0.22 62 1007.5
20260503184045 77 33 3.0 6.0 0.00 0.22 0.22 62 1007.4
20260503183539 77 34 3.0 6.0 0.00 0.22 0.22 62 1007.4
20260503183036 77 42 3.0 7.0 0.00 0.22 0.22 62 1007.4
20260503182527 77 26 3.0 7.0 0.00 0.22 0.22 63 1007.4
20260503182031 77 30 3.0 5.0 0.00 0.22 0.22 63 1007.6
20260503181737 77 25 2.0 5.0 0.00 0.22 0.22 63 1007.7
20260503180503 77 24 2.0 4.0 0.00 0.22 0.22 63 1007.6
20260503175958 77 24 2.0 4.0 0.00 0.22 0.22 63 1007.8
20260503175451 78 23 2.0 5.0 0.00 0.22 0.22 63 1007.8
20260503174945 78 18 2.0 5.0 0.00 0.22 0.22 63 1007.9
20260503174440 78 5 2.0 4.0 0.00 0.22 0.22 63 1007.9
20260503173933 78 5 2.0 4.0 0.00 0.22 0.22 63 1008.0
20260503173427 78 295 1.0 4.0 0.00 0.22 0.22 63 1008.0